Weather History for KAEX - February, 2009

Change the Weather History Date:

Thursday, February 5, 2009

  Actual Average Record
Temperature  
Mean Temperature 45 °F 50 °F  
Max Temperature 61 °F 61 °F 84 °F (1957)
Min Temperature 28 °F 39 °F 16 °F (1996)
Degree Days  
Heating Degree Days 20 15  
Month to date heating degree days 97 77  
Since 1 July heating degree days 1307 1368  
Moisture  
Dew Point 27 °F    
Average Humidity 53    
Maximum Humidity 76    
Minimum Humidity 29    
Precipitation  
Precipitation 0.00 in 0.15 in 3.63 in (1955)
Month to date precipitation 0.38 0.77  
Year to date precipitation 1.44 5.99  
Snow  
Snow 0.00 in - 0.00 in ()
Month to date snowfall 0.0  
Since 1 July snowfall 0.0  
Snow Depth 0.00 in    
Sea Level Pressure  
Sea Level Pressure 30.53 in    
Wind  
Wind Speed 7 mph (SE)    
Max Wind Speed 14 mph    
Max Gust Speed 17 mph    
Visibility 10 miles    
Events Snow    
T = Trace of Precipitation, MM = Missing Value Source: NWS Daily Summary

Daily Weather History Graph

Daily Weather History Graph

Search for Another Location

Airport or City:

Trip Planner

Search our weather history database for the weather conditions in past years. The results will help you decide how hot, cold, wet, or windy it might be!

Date:

Astronomy

Feb. 05, 2009 Rise Set
Actual Time 6:59 AM CST 5:49 PM CST
Civil Twilight 6:34 AM CST 6:14 PM CST
Nautical Twilight 6:05 AM CST 6:43 PM CST
Astronomical Twilight 5:37 AM CST 7:11 PM CST
Moon 1:32 PM CST (2/5) 3:29 AM CST (2/5)
Length of Visible Light 11h 39m
Length of Day
10h 49m
Waxing Gibbous, 80% of the Moon is Illuminated
Feb 5
Waxing Gibbous
Feb 9
Full
Feb 16
Last Quarter
Feb 24
New
Mar 4
First Quarter

Hourly Weather History & Observations

Time (CST) Temp. Windchill Dew Point Humidity Pressure Visibility Wind Dir Wind Speed Gust Speed Precip Events Conditions
12:53 AM 33.1 °F 28.7 °F 19.0 °F 56% 30.58 in 10.0 mi East 4.6 mph - N/A   Clear
1:53 AM 28.9 °F 22.8 °F 19.9 °F 69% 30.57 in 10.0 mi ESE 5.8 mph - N/A   Clear
2:53 AM 32.0 °F 26.4 °F 19.9 °F 61% 30.57 in 10.0 mi ESE 5.8 mph - N/A   Clear
3:53 AM 30.9 °F - 19.9 °F 64% 30.57 in 10.0 mi Calm Calm - N/A   Clear
5:53 AM 30.0 °F 26.5 °F 19.9 °F 66% 30.58 in 10.0 mi East 3.5 mph - N/A   Clear
6:53 AM 30.0 °F 24.1 °F 19.9 °F 66% 30.60 in 10.0 mi ESE 5.8 mph - N/A   Clear
7:53 AM 33.1 °F 26.1 °F 19.9 °F 59% 30.60 in 10.0 mi ESE 8.1 mph - 0.00 in Snow Light Snow
8:53 AM 37.9 °F 30.0 °F 19.0 °F 47% 30.61 in 9.0 mi SE 12.7 mph - 0.00 in   Clear
9:53 AM 43.0 °F 37.2 °F 21.0 °F 42% 30.62 in 10.0 mi SE 10.4 mph - N/A   Clear
10:53 AM 46.0 °F 41.0 °F 21.9 °F 39% 30.62 in 10.0 mi SSE 10.4 mph - N/A   Clear
11:53 AM 50.0 °F - 24.1 °F 36% 30.59 in 10.0 mi ESE 5.8 mph - N/A   Clear
12:53 PM 53.1 °F - 26.1 °F 35% 30.54 in 10.0 mi Variable 6.9 mph - N/A   Clear
1:53 PM 57.0 °F - 28.0 °F 33% 30.50 in 10.0 mi SE 10.4 mph - N/A   Clear
2:53 PM 60.1 °F - 28.9 °F 31% 30.48 in 10.0 mi ESE 6.9 mph - N/A   Clear
3:53 PM 61.0 °F - 28.9 °F 30% 30.46 in 10.0 mi SSE 6.9 mph - N/A   Clear
4:53 PM 60.1 °F - 30.9 °F 33% 30.46 in 10.0 mi SSE 8.1 mph - N/A   Clear
5:53 PM 55.9 °F - 33.1 °F 42% 30.46 in 10.0 mi SSE 6.9 mph - N/A   Clear
6:53 PM 48.0 °F - 34.0 °F 58% 30.47 in 10.0 mi SSE 5.8 mph - N/A   Clear
7:53 PM 46.9 °F - 35.1 °F 63% 30.46 in 10.0 mi SSE 5.8 mph - N/A   Clear
8:53 PM 46.9 °F - 37.0 °F 68% 30.47 in 10.0 mi SSE 9.2 mph - N/A   Clear
9:53 PM 46.0 °F 41.9 °F 39.0 °F 76% 30.47 in 10.0 mi SSE 8.1 mph - N/A   Clear
10:53 PM 46.9 °F - 39.9 °F 77% 30.47 in 10.0 mi SSE 4.6 mph - N/A   Clear
11:53 PM 44.1 °F 41.5 °F 37.9 °F 79% 30.46 in 10.0 mi SSE 4.6 mph - N/A   Clear